"Pseudo-MPEC" for CEP98A2

Created 2026 Jun 6 7:35:03 UT using Find_Orb

Click here for an explanation of pseudo-MPECs

 
 Astrometry: 
     CEP98A2*1C2026 06 05.23173615 12 35.946+38 59 18.24   ~656K 20.25GVNEOCPG96
     CEP98A2 1C2026 06 05.23691515 12 37.296+39 00 31.46   ~656K 20.47GVNEOCPG96
     CEP98A2 1C2026 06 05.24209215 12 38.682+39 01 43.54   ~656K 20.41GVNEOCPG96
     CEP98A2 1C2026 06 05.24731215 12 40.090+39 02 55.75   ~656K 20.34GVNEOCPG96
     CEP98A2 1C2026 06 05.32519615 13 00.977+39 20 34.15   ~6585       VNEOCPI52
     CEP98A2 1C2026 06 05.32609615 13 01.304+39 20 46.50   ~6585 20.95GVNEOCPI52
     CEP98A2 1C2026 06 05.32699515 13 01.542+39 20 58.88   ~6585 20.44GVNEOCPI52
     CEP98A2 1C2026 06 05.32789315 13 01.816+39 21 10.84   ~6585 20.33GVNEOCPI52
     CEP98A2 7B2026 06 05.90358015 16 22.190+41 24 33.64   ~667Z 20.5 GXNEOCPZ84
     CEP98A2 7B2026 06 05.90764915 16 23.226+41 25 23.25   ~667Z 20.6 GXNEOCPZ84
     CEP98A2 7B2026 06 05.91171915 16 24.267+41 26 13.00   ~667Z 21.0 GXNEOCPZ84
     CEP98A2 1C2026 06 06.20335015 17 58.362+42 23 28.28   ~665K 21.26GVNEOCPI52
     CEP98A2 1C2026 06 06.20493515 17 58.762+42 23 46.39   ~665K 21.14GVNEOCPI52
     CEP98A2 1C2026 06 06.20652615 17 59.161+42 24 04.82   ~665K       VNEOCPI52

Station data:
(G96) Mt. Lemmon Survey  (N32.442729 W110.788720)
   US/Arizona.  Observer E. J. Christensen. Measurers T. Beuden, V. F.
   Carvajal, D. Fay, J. B. Fazekas, D. C. Fuls, A. R. Gibbs, A. D. Grauer, H.
   Gröller, J. K. Hogan, R. A. Kowalski, S. M. Larson, G. J. Leonard, D.
   Rankin, R. L. Seaman, F. C. Shelly, K. W. Wierzchoś. 1.5-m reflector + 10K
   CCD.
(I52) Steward Observatory, Mt. Lemmon Station  (N32.442570 W110.788920)
   US/Arizona. Measurers T. Beuden, V. F. Carvajal, D. Fay, J. B. Fazekas, D.
   C. Fuls, A. R. Gibbs, A. D. Grauer, H. Gröller, J. K. Hogan, R. A.
   Kowalski, S. M. Larson, G. J. Leonard, D. Rankin, R. L. Seaman, F. C.
   Shelly, K. W. Wierzchoś. 1.0-m prime focus + CCD.
(Z84) Calar Alto-Schmidt  (N37.224006 W2.548160)  Spain.  Observer F. Ocaña.
   Measurers F. Ocaña, M. Micheli, R. Kresken. 0.8-m f/3 Schmidt + CCD.

Orbital elements:  CEP98A2
   Perihelion 2026 Jun 18.590450 +/- 0.186 TT = 14:10:14.8 (JD 2461210.090450)
Epoch 2026 Jun  6.0 TT = JDT 2461197.5   Earth MOID: 0.0255      AutoNEOCP
M 349.535150614 +/- 0.16            (J2000 ecliptic)
n   0.831173579 +/- 0.00161         Peri.   19.301496 +/- 0.18
a   1.120318642 +/- 0.00145         Node   247.108031 +/- 0.009
e   0.07621968 +/- 0.0011           Incl.   21.343127 +/- 0.09
P   1.186/433.114d         H 24.93  G  0.15   U  8.4
q 1.034928312 +/- 0.000122    Q 1.205708972 +/- 0.00279
From 14 observations 2026 June 5-6 (23.4 hr); mean residual 0".31
Residuals in arcseconds: 
260605 G96  .17+  .63-    260605 I52  .21+  .38-    260605 Z84  .09-  .19+    
260605 G96  .15-  .42+    260605 I52  .09+  .00     260606 I52  .01-  .05-    
260605 G96  .05-  .53+    260605 I52  .40+  .03-    260606 I52  .15+  .20-    
260605 G96  .18+  .35+    260605 Z84  .17-  .15+    260606 I52  .28+  .07-    
260605 I52  .71-  .70-    260605 Z84  .17-  .06+    

Ephemerides (geocentric):
Date (UTC) HH   RA             Dec           delta  r     elong  mag " sig PA
---- --------  ------------   ------------  ------ ------ -----  --- --------
2026 06 06 08  15 18 36.610   +42 47 24.95  .05746 1.0365 110.8 21.1 .280  50
2026 06 06 09  15 18 49.609   +42 55 05.41  .05769 1.0365 110.7 21.2 .306  49
2026 06 06 10  15 19 02.563   +43 02 42.07  .05791 1.0365 110.6 21.2 .334  49
2026 06 06 11  15 19 15.471   +43 10 14.95  .05814 1.0365 110.5 21.2 .362  48
2026 06 06 12  15 19 28.333   +43 17 44.11  .05837 1.0365 110.4 21.2 .391  48
2026 06 06 13  15 19 41.151   +43 25 09.59  .05860 1.0365 110.3 21.2 .421  47
2026 06 06 14  15 19 53.923   +43 32 31.41  .05883 1.0364 110.1 21.2 .451  47
2026 06 06 15  15 20 06.651   +43 39 49.63  .05906 1.0364 110.0 21.2 .482  46
2026 06 06 16  15 20 19.334   +43 47 04.27  .05929 1.0364 109.9 21.2 .514  46
2026 06 06 17  15 20 31.972   +43 54 15.38  .05952 1.0364 109.8 21.2 .547  45
2026 06 06 18  15 20 44.567   +44 01 22.99  .05975 1.0364 109.7 21.3 .580  45
2026 06 06 19  15 20 57.118   +44 08 27.14  .05998 1.0364 109.6 21.3 .614  44
2026 06 06 20  15 21 09.625   +44 15 27.87  .06021 1.0364 109.5 21.3 .649  44
2026 06 06 21  15 21 22.088   +44 22 25.21  .06044 1.0364 109.4 21.3 .685  43
2026 06 06 22  15 21 34.509   +44 29 19.19  .06067 1.0364 109.3 21.3 .721  43
2026 06 06 23  15 21 46.886   +44 36 09.86  .06090 1.0363 109.2 21.3 .757  43
2026 06 07 00  15 21 59.220   +44 42 57.24  .06113 1.0363 109.1 21.3 .794  42
2026 06 07 01  15 22 11.512   +44 49 41.38  .06137 1.0363 109.0 21.3 .832  42
2026 06 07 02  15 22 23.762   +44 56 22.29  .06160 1.0363 108.8 21.3 .870  42
2026 06 07 03  15 22 35.969   +45 03 00.03  .06183 1.0363 108.7 21.4 .909  41
2026 06 07 04  15 22 48.134   +45 09 34.61  .06206 1.0363 108.6 21.4 .949  41
2026 06 07 05  15 23 00.258   +45 16 06.08  .06230 1.0363 108.5 21.4 .989  41
2026 06 07 06  15 23 12.339   +45 22 34.47  .06253 1.0363 108.4 21.4 1.03  40
2026 06 07 07  15 23 24.380   +45 28 59.80  .06276 1.0363 108.3 21.4 1.07  40
2026 06 07 08  15 23 36.379   +45 35 22.10  .06300 1.0363 108.2 21.4 1.11  40
2026 06 07 09  15 23 48.337   +45 41 41.42  .06323 1.0362 108.1 21.4 1.15  40
2026 06 07 10  15 24 00.255   +45 47 57.78  .06346 1.0362 108.0 21.4 1.20  40
2026 06 07 11  15 24 12.132   +45 54 11.21  .06370 1.0362 107.9 21.4 1.24  39
2026 06 07 12  15 24 23.968   +46 00 21.73  .06393 1.0362 107.9 21.5 1.28  39
2026 06 07 13  15 24 35.765   +46 06 29.39  .06417 1.0362 107.8 21.5 1.33  39
2026 06 07 14  15 24 47.521   +46 12 34.20  .06440 1.0362 107.7 21.5 1.37  39
2026 06 07 15  15 24 59.237   +46 18 36.20  .06464 1.0362 107.6 21.5 1.41  38
2026 06 07 16  15 25 10.914   +46 24 35.42  .06487 1.0362 107.5 21.5 1.46  38
2026 06 07 17  15 25 22.552   +46 30 31.89  .06511 1.0362 107.4 21.5 1.50  38
2026 06 07 18  15 25 34.150   +46 36 25.62  .06534 1.0362 107.3 21.5 1.55  38
2026 06 07 19  15 25 45.709   +46 42 16.65  .06558 1.0362 107.2 21.5 1.59  38
2026 06 07 20  15 25 57.229   +46 48 05.01  .06582 1.0361 107.1 21.5 1.64  38
2026 06 07 21  15 26 08.711   +46 53 50.73  .06605 1.0361 107.0 21.5 1.69  38
2026 06 07 22  15 26 20.154   +46 59 33.82  .06629 1.0361 106.9 21.6 1.73  37
2026 06 07 23  15 26 31.559   +47 05 14.32  .06653 1.0361 106.8 21.6 1.78  37
2026 06 08 00  15 26 42.926   +47 10 52.25  .06676 1.0361 106.7 21.6 1.83  37
2026 06 08 01  15 26 54.255   +47 16 27.64  .06700 1.0361 106.7 21.6 1.88  37
2026 06 08 02  15 27 05.546   +47 22 00.51  .06724 1.0361 106.6 21.6 1.92  37
2026 06 08 03  15 27 16.800   +47 27 30.90  .06747 1.0361 106.5 21.6 1.97  37
2026 06 08 04  15 27 28.016   +47 32 58.81  .06771 1.0361 106.4 21.6 2.02  37
2026 06 08 05  15 27 39.195   +47 38 24.28  .06795 1.0361 106.3 21.6 2.07  37
2026 06 08 06  15 27 50.337   +47 43 47.33  .06819 1.0361 106.2 21.6 2.12  36
2026 06 08 07  15 28 01.442   +47 49 07.99  .06842 1.0360 106.1 21.6 2.17  36